Flag for Mozambique Weather past 2 weeks in Nampula, Mozambique

Now
75 °F

Passing clouds.


Feels Like: 76 °F
Forecast: 57 / 76 °F
Wind: N/A

Location: Pemba Airport

Current Time: Aug 3, 2015 at 8:07:44 PM

Latest Report: Aug 3, 2015 at 7:00 PM


Visibility: N/A

Pressure: 30.09 "Hg

Humidity: 78%

Dew point: 68 °F

Location of NampulaLocation

Historic Weather in Nampula — Graph

°F

Nampula temperature yesterday

Maximum temperature yesterday: 82 °F (at 12:00 PM)
Minimum temperature yesterday: 73 °F (at 10:00 PM)
Average temperature yesterday: 78 °F

Past Weeks' High & Low Weather Summary

 TemperatureHumidityPressure
High84 °F (Aug 1, 1:00 PM)100% (Jul 21, 6:00 AM)30.15 "Hg (Jul 21, 6:00 AM)
Low64 °F (Aug 3, 6:00 AM)51% (Aug 3, 10:00 AM)29.92 "Hg (Jul 31, 3:00 PM)
Average77 °F79%30.04 "Hg
* Reported Jul 19 7:00 PM — Aug 3 7:00 PM, Nampula, Weather by CustomWeather, © 2015

Note: Actual official high and low records may vary slightly from our data, if they occured in-between our weather recording intervals... More about our weather records

Advertising

Nampula weather history for previous 24 hours

 ConditionsComfort  
Time TempWeatherWind HumidityBarometerVisibility
7:00 PM
Mon, Aug 3
75 °FPassing clouds.N/A78%30.09 "HgN/A
6:00 PM75 °FPassing clouds.N/A78%30.09 "HgN/A
4:00 PM77 °FPartly sunny.N/A79%30.07 "HgN/A
3:00 PM79 °FPartly sunny.N/A70%30.07 "HgN/A
2:00 PM81 °FScattered clouds.N/A66%30.07 "HgN/A
1:00 PM81 °FScattered clouds.17 mph66%30.09 "HgN/A
11:00 AM82 °FPassing clouds.20 mph51%30.12 "HgN/A
10:00 AM81 °FPassing clouds.16 mph51%30.15 "HgN/A
9:00 AM75 °FPassing clouds.14 mph54%30.15 "HgN/A
8:00 AM73 °FPassing clouds.12 mph57%30.15 "HgN/A
7:00 AM66 °FPassing clouds.10 mph83%30.12 "HgN/A
6:00 AM64 °FPassing clouds.10 mph83%30.09 "HgN/A
4:00 AM70 °FPassing clouds.9 mph94%30.09 "HgN/A
3:00 AM73 °FPassing clouds.7 mph94%30.09 "HgN/A
2:00 AM73 °FPassing clouds.9 mph94%30.09 "HgN/A
12:00 AM73 °FPassing clouds.12 mph89%30.15 "HgN/A
10:00 PM
Sun, Aug 2
73 °FPassing clouds.12 mph89%30.12 "HgN/A
9:00 PM75 °FPassing clouds.14 mph83%30.12 "HgN/A
8:00 PM75 °FPassing clouds.13 mph83%30.12 "HgN/A
Weather by CustomWeather, © 2015

See weather overviewHow to use our weather pages